Tupelo, MS

6:47 PM CDT on September 22, 2017 (GMT -0500)
Tupelo Regional

Weather History for KTUP - December, 2012

Change the Weather History Date:

Thursday, December 20, 2012

  Actual Average Record
Temperature  
Mean Temperature 51 °F 43 °F  
Max Temperature 63 °F 53 °F 74 °F (1971)
Min Temperature 39 °F 33 °F 3 °F (1981)
Degree Days  
Heating Degree Days 14 22  
Month to date heating degree days 209 401  
Since 1 July heating degree days 828 923  
Cooling Degree Days 0 0  
Month to date cooling degree days 1 0  
Year to date cooling degree days 2203 2044  
Growing Degree Days 1 (Base 50)    
Moisture  
Dew Point 40 °F    
Average Humidity 65    
Maximum Humidity 90    
Minimum Humidity 40    
Precipitation  
Precipitation 0.32 in 0.19 in 2.92 in (1990)
Month to date precipitation 4.36 4.32  
Year to date precipitation 47.04 53.05  
Snow  
Snow 0.00 in 0.00 in T in (1973)
Month to date snowfall 0.0 0.1  
Since 1 July snowfall 0.0 0.1  
Snow Depth 0.00 in    
Sea Level Pressure  
Sea Level Pressure 29.83 in    
Wind  
Wind Speed 15 mph (West)    
Max Wind Speed 29 mph    
Max Gust Speed 41 mph    
Visibility 9 miles    
Events Rain    
T = Trace of Precipitation, MM = Missing Value Source: NWS Daily Summary

Daily Weather History Graph

Daily Weather History Graph

Search for Another Location

Airport or City:

Trip Planner

Search our weather history database for the weather conditions in past years. The results will help you decide how hot, cold, wet, or windy it might be!

Date:

Astronomy

Dec. 20, 2012 Rise Set
Actual Time 6:57 AM CST 4:48 PM CST
Civil Twilight 6:29 AM CST 5:16 PM CST
Nautical Twilight 5:57 AM CST 5:48 PM CST
Astronomical Twilight 5:27 AM CST 6:18 PM CST
Moon 11:54 AM CST (12/20) No Moon Set
Length of Visible Light 10h 47m
Length of Day
9h 51m
First Quarter, 55% of the Moon is Illuminated
Dec 20
First Quarter
Dec 28
Full
Jan 4
Last Quarter
Jan 11
New
Jan 18
First Quarter

Hourly Weather History & Observations

Time (CST) Temp. Windchill Dew Point Humidity Pressure Visibility Wind Dir Wind Speed Gust Speed Precip Events Conditions
12:31 AM 60.8 °F - 51.8 °F 72% 29.80 in 10.0 mi SSW 13.8 mph 19.6 mph N/A   Overcast
12:53 AM 62.1 °F - 53.1 °F 72% 29.77 in 10.0 mi South 13.8 mph 20.7 mph N/A   Overcast
1:53 AM 60.1 °F - 55.0 °F 83% 29.72 in 10.0 mi SSW 15.0 mph 24.2 mph 0.04 in   Overcast
2:32 AM 60.8 °F - 57.2 °F 88% 29.72 in 10.0 mi SSW 21.9 mph 29.9 mph 0.00 in Rain Light Rain
2:53 AM 60.1 °F - 57.0 °F 90% 29.70 in 10.0 mi SSW 19.6 mph 29.9 mph 0.00 in   Overcast
3:53 AM 60.1 °F - 57.9 °F 93% 29.66 in 7.0 mi SSW 23.0 mph 29.9 mph N/A   Overcast
4:10 AM 60.8 °F - 59.0 °F 94% 29.66 in 8.0 mi SSW 18.4 mph 31.1 mph N/A   Overcast
4:53 AM 61.0 °F - 59.0 °F 93% 29.62 in 10.0 mi SSW 19.6 mph 27.6 mph 0.03 in Rain Light Rain
5:26 AM 62.6 °F - 60.8 °F 94% 29.61 in 10.0 mi SSW 17.3 mph 28.8 mph 0.13 in Rain Light Rain
5:53 AM 63.0 °F - 61.0 °F 93% 29.59 in 10.0 mi SSW 18.4 mph - 0.13 in   Overcast
6:08 AM 55.4 °F - 53.6 °F 94% 29.68 in 2.5 mi West 12.7 mph 32.2 mph 0.04 in Rain Heavy Rain
6:15 AM 53.6 °F - 51.8 °F 94% 29.67 in 3.0 mi West 9.2 mph 21.9 mph 0.12 in Rain Rain
6:53 AM 53.1 °F - 50.0 °F 89% 29.65 in 10.0 mi SW 4.6 mph - 0.12 in   Mostly Cloudy
7:53 AM 55.9 °F - 50.0 °F 80% 29.68 in 10.0 mi West 10.4 mph - N/A   Overcast
8:53 AM 55.0 °F - 44.1 °F 67% 29.70 in 10.0 mi West 15.0 mph 31.1 mph N/A   Overcast
9:53 AM 54.0 °F - 42.1 °F 64% 29.75 in 10.0 mi West 24.2 mph 40.3 mph 0.00 in   Overcast
10:53 AM 50.0 °F - 34.0 °F 54% 29.78 in 10.0 mi WNW 19.6 mph 35.7 mph N/A   Mostly Cloudy
11:53 AM 48.9 °F - 30.9 °F 50% 29.82 in 10.0 mi NW 21.9 mph 32.2 mph N/A   Scattered Clouds
12:53 PM 48.9 °F - 30.0 °F 48% 29.83 in 10.0 mi NW 9.2 mph 27.6 mph N/A   Mostly Cloudy
1:53 PM 48.0 °F - 28.0 °F 46% 29.86 in 10.0 mi WNW 20.7 mph 35.7 mph N/A   Mostly Cloudy
2:53 PM 48.9 °F - 28.0 °F 44% 29.88 in 10.0 mi WNW 17.3 mph 31.1 mph N/A   Scattered Clouds
3:53 PM 48.0 °F - 27.0 °F 44% 29.93 in 10.0 mi NW 10.4 mph 25.3 mph N/A   Partly Cloudy
4:53 PM 46.0 °F 40.2 °F 27.0 °F 47% 29.97 in 10.0 mi NW 12.7 mph 24.2 mph N/A   Mostly Cloudy
5:53 PM 45.0 °F 39.7 °F 28.0 °F 52% 30.00 in 10.0 mi WNW 10.4 mph 17.3 mph N/A   Mostly Cloudy
6:53 PM 45.0 °F 38.9 °F 27.0 °F 49% 30.04 in 10.0 mi WNW 12.7 mph 28.8 mph N/A   Overcast
7:53 PM 43.0 °F 37.7 °F 26.1 °F 51% 30.06 in 10.0 mi NW 9.2 mph - N/A   Clear
8:53 PM 42.1 °F 36.1 °F 26.1 °F 53% 30.08 in 10.0 mi NW 10.4 mph 20.7 mph N/A   Clear
9:53 PM 41.0 °F 35.2 °F 19.0 °F 41% 30.10 in 10.0 mi NNW 9.2 mph 19.6 mph N/A   Clear
10:53 PM 39.9 °F 32.9 °F 17.1 °F 40% 30.13 in 10.0 mi NNW 11.5 mph 26.5 mph N/A   Clear
11:53 PM 39.0 °F 32.8 °F 17.1 °F 41% 30.14 in 10.0 mi NW 9.2 mph 18.4 mph N/A   Clear